User: anonymous   Login
Location: Chavannes
(47.1090°N, 0.2226°W)
Time: 18:06:40
(UTC+00:00)
Language:

Gbstr 26 Del rocket - Orbit

View from above orbital plane
View from above orbital plane
View from above satellite
View from above satellite

Ground track
Ground track

The orbit data is extracted from the following two-line orbital elements,

1 25876U 99041E   22020.84838161  .00000599  00000-0  14077-3 0  9991
2 25876  51.7661 170.7751 0530256 242.9348 111.6536 14.04725104150475
Epoch (UTC): 20 January 2022 20:21:40
Eccentricity: 0.0530256
inclination: 51.7661°
perigee height: 493 km
apogee height: 1262 km
right ascension of ascending node: 170.7751°
argument of perigee: 242.9348°
revolutions per day: 14.04725104
mean anomaly at epoch: 111.6536°
orbit number at epoch: 15047

The dashed part of the orbit path shows where the satellite is in the earth's shadow,  

DLR